COSMOS 2251 DEB, 34968

Orbit data source: Space-Track

COSMOS 2251 DEB, 34968 is space debris in LEO originally from a launch on Wed, 16 Jun 1993 UTC launched from the Plesetsk Missile And Space Complex (PKMTR). The debris from Iridium 33, an American commercial communications satellite, has been tracked extensively since its accidental collision with the defunct Russian satellite Cosmos 2251 in 2009. This event, occurring at high speed in low Earth orbit (LEO), generated thousands of pieces of space debris, significantly increasing the risk of further collisions. The Iridium 33 debris cloud has impacted space traffic management and orbital debris mitigation strategies, making it a subject of ongoing study in space situational awareness.

Loading next visibility...
Identifier
34968, 1993-036AEX
Orbit
LEO
Country
Flag of CISCIS
Related business
Manufacturer
Unknown
Mission
Spacecraft
Bus & Motor
Unknown
Mass
Unknown
Launch date (UTC)
1993-06-16 (32 years ago)
Launch vehicle
Unknown
Launch site
Plesetsk Missile And Space Complex (PKMTR)
Object type
Payload
Rocket body
Debris
Shape & HBR
Unknown shape, 0.1 m
Radar Cross Section
Small (<0.1 m²)

Expand to show TLE details & history
Last TLE update: 17 hours ago

TLE from 17 hours ago
0 COSMOS 2251 DEB
1 34968U 93036AEX 25299.53706883  .00000762  00000-0  15960-3 0  9997
2 34968  74.0394 337.0428 0085664 110.4438 250.5952 14.59288242877898
Epoch: 2025-10-26T12:53Z
TLE epoch observation values (Epoch: 2025-10-26T12:53:22.746Z)
Latitude
-0.00001°
Longitude
108.54618°
Altitude
718.709 km
Speed
7.485 km/s
True Right ascension
22h 28m 10s
True Declination
0° 00' 00"
Sunlit
Object was in full shadow at epoch
Visualization orbit readout
Latitude
Unknown
Longitude
Unknown
Altitude
Unknown
Speed
Unknown
Apparent Right ascension
Unknown
Apparent Declination
Unknown
Sunlit
N/A
Visualization observer readout
Local Sidereal Time
00:49:24
Azimuth
Unknown
Elevation
Unknown
Doppler factor
Unknown
Orbital elements
Apogee altitude
753.646 km
Perigee altitude
632.496 km
Semi-major axis
7,071.208 km
Eccentricity
0.00857
Inclination
74.0394°
RAAN
337.0428°
Arg. of periapsis
110.4438°
True anomaly
249.67265°
Mean anomaly
250.5952°
Eccentric anomaly
250.13359°
Mean motion
3.65008 °/min
Orbital period
98.63 mins
BSTAR
0.0001596
Loading maneuver chart data...
Computing Atmospheric mass density...

Documentation

Showing up to 5 results
|